VU3ZAG-13 Weather Reports


time (UTC)temp
C
wind
direction
speed
KPH
gust
KPH
rain 1hr
cm
rain 24hr
cm
rain mn
cm
humidity
%
barometer
mb
20260507192046 32 2 1.6 0.0 0.00 0.00 0.00 46
20260507191537 32 305 1.6 0.0 0.00 0.00 0.00 47
20260507190520 32 270 1.6 0.0 0.00 0.00 0.00 46
20260507190011 32 213 1.6 0.0 0.00 0.00 0.00 46
20260507185502 32 242 1.6 0.0 0.00 0.00 0.00 46
20260507184953 32 239 1.6 0.0 0.00 0.00 0.00 46
20260507184443 32 245 3.2 0.0 0.00 0.00 0.00 47
20260507183935 32 198 1.6 0.0 0.00 0.00 0.00 47
20260507183426 32 267 3.2 0.0 0.00 0.00 0.00 47
20260507182914 32 264 3.2 0.0 0.00 0.00 0.00 47
20260507182405 32 269 3.2 0.0 0.00 0.00 0.00 46
20260507181856 32 279 1.6 0.0 0.00 0.00 0.00 45
20260507181347 32 294 1.6 0.0 0.00 0.00 0.00 46
20260507180839 32 287 4.8 0.0 0.00 0.00 0.00 45
20260507180330 32 277 3.2 0.0 0.00 0.00 0.00 45
20260507175821 32 184 3.2 0.0 0.00 0.00 0.00 42
20260507175313 32 186 1.6 0.0 0.00 0.00 0.00 41
20260507174804 32 268 3.2 0.0 0.00 0.00 0.00 42
20260507174255 32 263 3.2 0.0 0.00 0.00 0.00 41
20260507173746 32 247 3.2 0.0 0.00 0.00 0.00 40
20260507173237 32 271 3.2 0.0 0.00 0.00 0.00 40
20260507172728 31 249 3.2 0.0 0.00 0.00 0.00 41
20260507172219 32 278 3.2 0.0 0.00 0.00 0.00 42
20260507171710 32 175 1.6 0.0 0.00 0.00 0.00 40
20260507171202 32 208 1.6 0.0 0.00 0.00 0.00 40
20260507170653 32 321 3.2 0.0 0.00 0.00 0.00 41
20260507170145 32 15 1.6 0.0 0.00 0.00 0.00 40
20260507165636 32 289 6.4 0.0 0.00 0.00 0.00 38
20260507165127 32 280 8.0 0.0 0.00 0.00 0.00 38
20260507164618 32 278 6.4 0.0 0.00 0.00 0.00 38
20260507164109 32 249 3.2 0.0 0.00 0.00 0.00 38
20260507163601 32 242 4.8 0.0 0.00 0.00 0.00 38
20260507163052 32 234 4.8 0.0 0.00 0.00 0.00 37
20260507162544 32 232 6.4 0.0 0.00 0.00 0.00 35
20260507162035 32 232 4.8 0.0 0.00 0.00 0.00 36
20260507161527 32 234 4.8 0.0 0.00 0.00 0.00 36
20260507161018 32 229 3.2 0.0 0.00 0.00 0.00 36
20260507160510 32 232 1.6 0.0 0.00 0.00 0.00 36
20260507160001 32 228 3.2 0.0 0.00 0.00 0.00 37
20260507155452 32 211 3.2 0.0 0.00 0.00 0.00 37
20260507154944 32 246 1.6 0.0 0.00 0.00 0.00 38
20260507154435 32 242 3.2 0.0 0.00 0.00 0.00 38
20260507153926 32 243 3.2 0.0 0.00 0.00 0.00 37
20260507153914 32 241 3.2 0.0 0.00 0.00 0.00 35
20260507153837 32 241 3.2 0.0 0.00 0.00 0.00 35
20260507153506 32 213 3.2 0.0 0.00 0.00 0.00 36
20260507153426 32 241 3.2 0.0 0.00 0.00 0.00 35
20260507153416 32 233 1.6 0.0 0.00 0.00 0.00 36
20260507153316 32 213 3.2 0.0 0.00 0.00 0.00 36
20260507153230 32 213 3.2 0.0 0.00 0.00 0.00 36
20260507153201 32 241 3.2 0.0 0.00 0.00 0.00 35
20260507152907 32 213 3.2 0.0 0.00 0.00 0.00 36
20260507152757 32 241 3.2 0.0 0.00 0.00 0.00 35
20260507152358 32 210 3.2 0.0 0.00 0.00 0.00 35
20260507152300 32 241 3.2 0.0 0.00 0.00 0.00 35
20260507151850 32 241 3.2 0.0 0.00 0.00 0.00 35
20260507151342 32 233 4.8 0.0 0.00 0.00 0.00 34
20260507151244 32 238 3.2 0.0 0.00 0.00 0.00 34
20260507150833 32 238 3.2 0.0 0.00 0.00 0.00 34
20260507150729 32 230 1.6 0.0 0.00 0.00 0.00 33
20260507150325 32 230 1.6 0.0 0.00 0.00 0.00 33
20260507145816 32 210 3.2 0.0 0.00 0.00 0.00 32
20260507145712 32 201 4.8 0.0 0.00 0.00 0.00 32
20260507145308 32 201 4.8 0.0 0.00 0.00 0.00 32
20260507144759 32 203 3.2 0.0 0.00 0.00 0.00 32
20260507144701 32 198 3.2 0.0 0.00 0.00 0.00 32
20260507144250 32 198 3.2 0.0 0.00 0.00 0.00 32
20260507143741 32 209 1.6 0.0 0.00 0.00 0.00 31
20260507143232 32 193 1.6 0.0 0.00 0.00 0.00 30
20260507142724 32 195 0.0 0.0 0.00 0.00 0.00 31
20260507142215 32 194 1.6 0.0 0.00 0.00 0.00 31
20260507141706 32 180 1.6 0.0 0.00 0.00 0.00 31
20260507141157 32 191 3.2 0.0 0.00 0.00 0.00 30
20260507140649 32 202 3.2 0.0 0.00 0.00 0.00 30
20260507140140 32 220 4.8 0.0 0.00 0.00 0.00 30
20260507135632 32 240 3.2 0.0 0.00 0.00 0.00 30
20260507135123 32 242 4.8 0.0 0.00 0.00 0.00 30
20260507134614 32 270 3.2 0.0 0.00 0.00 0.00 30
20260507134454 32 270 3.2 0.0 0.00 0.00 0.00 30
20260507134042 32 270 3.2 0.0 0.00 0.00 0.00 30
20260507133533 32 324 3.2 0.0 0.00 0.00 0.00 30
20260507133024 32 286 3.2 0.0 0.00 0.00 0.00 30
20260507132927 32 287 1.6 0.0 0.00 0.00 0.00 30
20260507132516 32 287 1.6 0.0 0.00 0.00 0.00 30
20260507132007 32 295 8.0 0.0 0.00 0.00 0.00 32
20260507131459 32 331 6.4 0.0 0.00 0.00 0.00 32
20260507111849 32 7 3.2 0.0 0.00 0.00 0.00 33
20260507104349 33 336 6.4 0.0 0.00 0.00 0.00 32
20260507103840 33 313 9.7 0.0 0.00 0.00 0.00 32
20260507103742 33 307 6.4 0.0 0.00 0.00 0.00 32
20260507103332 33 307 6.4 0.0 0.00 0.00 0.00 32
20260507103232 33 347 6.4 0.0 0.00 0.00 0.00 32
20260507102823 33 347 6.4 0.0 0.00 0.00 0.00 32
20260507102716 33 10 8.0 0.0 0.00 0.00 0.00 31
20260507102314 33 10 8.0 0.0 0.00 0.00 0.00 31
20260507102216 33 330 6.4 0.0 0.00 0.00 0.00 31
20260507101806 33 330 6.4 0.0 0.00 0.00 0.00 31
20260507101705 33 335 4.8 0.0 0.00 0.00 0.00 32
20260507101257 33 335 4.8 0.0 0.00 0.00 0.00 32
20260507100748 33 316 8.0 0.0 0.00 0.00 0.00 31
20260507100240 33 342 8.0 0.0 0.00 0.00 0.00 31
20260507095730 33 336 8.0 0.0 0.00 0.00 0.00 31
20260507095628 33 318 6.4 0.0 0.00 0.00 0.00 30
20260507095222 33 318 6.4 0.0 0.00 0.00 0.00 30
20260507094713 32 212 3.2 0.0 0.00 0.00 0.00 30
20260507094205 32 196 1.6 0.0 0.00 0.00 0.00 29
20260507094107 32 203 1.6 0.0 0.00 0.00 0.00 30
20260507093656 32 203 1.6 0.0 0.00 0.00 0.00 30
20260507093148 32 195 3.2 0.0 0.00 0.00 0.00 30
20260507093050 32 96 1.6 0.0 0.00 0.00 0.00 31
20260507092639 32 96 1.6 0.0 0.00 0.00 0.00 31
20260507092130 32 153 0.0 0.0 0.00 0.00 0.00 32
20260507091622 32 172 4.8 0.0 0.00 0.00 0.00 30
20260507091524 32 202 1.6 0.0 0.00 0.00 0.00 29
20260507091113 32 202 1.6 0.0 0.00 0.00 0.00 29
20260507091014 33 67 1.6 0.0 0.00 0.00 0.00 29
20260507090603 33 67 1.6 0.0 0.00 0.00 0.00 29
20260507090054 32 297 0.0 0.0 0.00 0.00 0.00 28
20260507085546 32 17 1.6 0.0 0.00 0.00 0.00 26
20260507085037 32 26 1.6 0.0 0.00 0.00 0.00 29
20260507084528 32 49 1.6 0.0 0.00 0.00 0.00 26
20260507084020 32 326 1.6 0.0 0.00 0.00 0.00 26
20260507083512 32 156 1.6 0.0 0.00 0.00 0.00 27
20260507083401 32 40 3.2 0.0 0.00 0.00 0.00 29
20260507083004 32 40 3.2 0.0 0.00 0.00 0.00 29
20260507082455 32 216 3.2 0.0 0.00 0.00 0.00 28
20260507081946 32 184 3.2 0.0 0.00 0.00 0.00 27
20260507081437 32 199 4.8 0.0 0.00 0.00 0.00 27
20260507081334 32 212 0.0 0.0 0.00 0.00 0.00 28
20260507080927 32 212 0.0 0.0 0.00 0.00 0.00 28
20260507080418 32 228 3.2 0.0 0.00 0.00 0.00 30
20260507075910 32 190 0.0 0.0 0.00 0.00 0.00 30
20260507075812 32 163 1.6 0.0 0.00 0.00 0.00 30
20260507075401 32 163 1.6 0.0 0.00 0.00 0.00 30
20260507075306 32 171 3.2 0.0 0.00 0.00 0.00 29
20260507074853 32 171 3.2 0.0 0.00 0.00 0.00 29
20260507074756 32 194 1.6 0.0 0.00 0.00 0.00 30
20260507074345 32 194 1.6 0.0 0.00 0.00 0.00 30
20260507072740 32 210 1.6 0.0 0.00 0.00 0.00 29
20260507072232 32 192 3.2 0.0 0.00 0.00 0.00 30
20260507071723 32 199 0.0 0.0 0.00 0.00 0.00 30
20260507071214 32 185 1.6 0.0 0.00 0.00 0.00 30
20260507070705 32 196 1.6 0.0 0.00 0.00 0.00 32
20260507070607 32 89 1.6 0.0 0.00 0.00 0.00 34
20260507070156 32 89 1.6 0.0 0.00 0.00 0.00 34
20260507065647 32 158 4.8 0.0 0.00 0.00 0.00 34
20260507065138 32 191 3.2 0.0 0.00 0.00 0.00 33
20260507065041 32 229 1.6 0.0 0.00 0.00 0.00 35
20260507064629 32 229 1.6 0.0 0.00 0.00 0.00 35
20260507064121 32 199 3.2 0.0 0.00 0.00 0.00 35
20260507063611 32 120 1.6 0.0 0.00 0.00 0.00 34
20260507063509 32 348 1.6 0.0 0.00 0.00 0.00 34
20260507063103 32 348 1.6 0.0 0.00 0.00 0.00 34
20260507062959 32 181 6.4 0.0 0.00 0.00 0.00 32
20260507062554 32 181 6.4 0.0 0.00 0.00 0.00 32
20260507062453 32 149 0.0 0.0 0.00 0.00 0.00 32
20260507062046 32 149 0.0 0.0 0.00 0.00 0.00 32
20260507061948 32 150 1.6 0.0 0.00 0.00 0.00 36
20260507061537 32 150 1.6 0.0 0.00 0.00 0.00 36
20260507061029 32 77 0.0 0.0 0.00 0.00 0.00 36
20260507060520 32 177 1.6 0.0 0.00 0.00 0.00 36
20260507060012 32 150 3.2 0.0 0.00 0.00 0.00 35
20260507055856 32 49 1.6 0.0 0.00 0.00 0.00 34
20260507055503 32 49 1.6 0.0 0.00 0.00 0.00 34
20260507055405 31 65 1.6 0.0 0.00 0.00 0.00 35
20260507054955 31 65 1.6 0.0 0.00 0.00 0.00 35
20260507054446 32 154 1.6 0.0 0.00 0.00 0.00 36
20260507054349 31 140 1.6 0.0 0.00 0.00 0.00 35
20260507053938 31 140 1.6 0.0 0.00 0.00 0.00 35
20260507053429 31 201 0.0 0.0 0.00 0.00 0.00 36
20260507052920 31 111 1.6 0.0 0.00 0.00 0.00 36
20260507052411 31 234 1.6 0.0 0.00 0.00 0.00 35
20260507031340 31 309 0.0 0.0 0.00 0.00 0.00 51
20260507030831 31 298 0.0 0.0 0.00 0.00 0.00 51
20260507030323 31 182 0.0 0.0 0.00 0.00 0.00 50
20260507025814 31 206 1.6 0.0 0.00 0.00 0.00 51
20260507025306 31 168 1.6 0.0 0.00 0.00 0.00 51
20260507024757 31 208 1.6 0.0 0.00 0.00 0.00 52
20260507024249 31 180 0.0 0.0 0.00 0.00 0.00 51
20260507023741 31 249 1.6 0.0 0.00 0.00 0.00 51
20260507023232 31 287 1.6 0.0 0.00 0.00 0.00 51
20260507023131 31 339 3.2 0.0 0.00 0.00 0.00 52
20260507022724 31 339 3.2 0.0 0.00 0.00 0.00 52
20260507022216 31 356 3.2 0.0 0.00 0.00 0.00 52
20260507021707 31 324 1.6 0.0 0.00 0.00 0.00 51
20260507021604 31 344 3.2 0.0 0.00 0.00 0.00 51
20260507021159 31 344 3.2 0.0 0.00 0.00 0.00 51
20260507020651 31 331 3.2 0.0 0.00 0.00 0.00 52
20260507020548 31 359 1.6 0.0 0.00 0.00 0.00 52
20260507020142 31 359 1.6 0.0 0.00 0.00 0.00 52
20260507015634 31 6 1.6 0.0 0.00 0.00 0.00 52
20260507015126 31 345 1.6 0.0 0.00 0.00 0.00 52
20260507014617 31 260 1.6 0.0 0.00 0.00 0.00 52
20260507014108 31 279 1.6 0.0 0.00 0.00 0.00 52
20260507013559 31 267 3.2 0.0 0.00 0.00 0.00 52
20260507013500 31 262 1.6 0.0 0.00 0.00 0.00 51
20260507013051 31 262 1.6 0.0 0.00 0.00 0.00 51
20260507012542 31 286 1.6 0.0 0.00 0.00 0.00 52
20260507012033 31 275 3.2 0.0 0.00 0.00 0.00 51
20260507011524 31 305 1.6 0.0 0.00 0.00 0.00 53
20260507011015 31 315 3.2 0.0 0.00 0.00 0.00 53
20260507010506 31 300 3.2 0.0 0.00 0.00 0.00 53
20260507010409 31 303 4.8 0.0 0.00 0.00 0.00 53
20260507005958 31 303 4.8 0.0 0.00 0.00 0.00 53
20260507005449 31 335 4.8 0.0 0.00 0.00 0.00 53
20260507004940 31 313 4.8 0.0 0.00 0.00 0.00 52
20260507004432 31 314 1.6 0.0 0.00 0.00 0.00 52
20260507003923 31 333 1.6 0.0 0.00 0.00 0.00 51
20260507003825 31 337 4.8 0.0 0.00 0.00 0.00 51
20260507003414 31 337 4.8 0.0 0.00 0.00 0.00 51
20260507002906 31 322 1.6 0.0 0.00 0.00 0.00 51
20260507002759 31 308 3.2 0.0 0.00 0.00 0.00 52
20260507002357 31 308 3.2 0.0 0.00 0.00 0.00 52
20260507002259 31 310 3.2 0.0 0.00 0.00 0.00 52
20260507001849 31 310 3.2 0.0 0.00 0.00 0.00 52
20260507001340 31 313 3.2 0.0 0.00 0.00 0.00 52
20260507001243 31 277 3.2 0.0 0.00 0.00 0.00 53
20260507000832 31 277 3.2 0.0 0.00 0.00 0.00 53
20260507000324 31 301 1.6 0.0 0.00 0.00 0.00 53
20260506235815 31 278 3.2 0.0 0.00 0.00 0.00 53
20260506235307 31 275 3.2 0.0 0.00 0.00 0.00 53
20260506234758 31 266 3.2 0.0 0.00 0.00 0.00 54
20260506234250 31 269 4.8 0.0 0.00 0.00 0.00 53
20260506233741 31 269 3.2 0.0 0.00 0.00 0.00 54
20260506233232 31 271 3.2 0.0 0.00 0.00 0.00 54
20260506232724 31 270 4.8 0.0 0.00 0.00 0.00 54
20260506232216 31 281 4.8 0.0 0.00 0.00 0.00 53
20260506231707 31 275 4.8 0.0 0.00 0.00 0.00 53
20260506231159 31 275 4.8 0.0 0.00 0.00 0.00 53
20260506230650 31 274 4.8 0.0 0.00 0.00 0.00 54
20260506230142 31 279 3.2 0.0 0.00 0.00 0.00 53
20260506225633 31 271 3.2 0.0 0.00 0.00 0.00 54
20260506225125 31 265 3.2 0.0 0.00 0.00 0.00 53
20260506224616 31 276 3.2 0.0 0.00 0.00 0.00 53
20260506224108 31 273 4.8 0.0 0.00 0.00 0.00 53
20260506223559 31 288 3.2 0.0 0.00 0.00 0.00 53
20260506223050 31 278 3.2 0.0 0.00 0.00 0.00 53
20260506222542 31 279 3.2 0.0 0.00 0.00 0.00 53
20260506222033 31 284 3.2 0.0 0.00 0.00 0.00 53
20260506221525 31 269 3.2 0.0 0.00 0.00 0.00 53
20260506221016 31 267 3.2 0.0 0.00 0.00 0.00 53
20260506220507 31 267 3.2 0.0 0.00 0.00 0.00 53
20260506215959 31 281 3.2 0.0 0.00 0.00 0.00 54
20260506215450 31 281 3.2 0.0 0.00 0.00 0.00 53
20260506214942 31 265 1.6 0.0 0.00 0.00 0.00 53
20260506214433 31 266 3.2 0.0 0.00 0.00 0.00 53
20260506213925 31 277 4.8 0.0 0.00 0.00 0.00 53
20260506213416 31 268 3.2 0.0 0.00 0.00 0.00 53
20260506212907 31 265 3.2 0.0 0.00 0.00 0.00 53
20260506212359 31 270 3.2 0.0 0.00 0.00 0.00 53
20260506211850 31 271 3.2 0.0 0.00 0.00 0.00 52
20260506211342 31 280 3.2 0.0 0.00 0.00 0.00 53
20260506210833 31 271 3.2 0.0 0.00 0.00 0.00 53
20260506210325 31 271 4.8 0.0 0.00 0.00 0.00 53
20260506205816 31 259 4.8 0.0 0.00 0.00 0.00 52
20260506205308 31 269 3.2 0.0 0.00 0.00 0.00 53
20260506204800 31 269 3.2 0.0 0.00 0.00 0.00 53
20260506204251 31 282 1.6 0.0 0.00 0.00 0.00 52
20260506203742 31 281 1.6 0.0 0.00 0.00 0.00 52
20260506203233 31 265 3.2 0.0 0.00 0.00 0.00 53
20260506202725 31 257 1.6 0.0 0.00 0.00 0.00 52
20260506202216 31 317 1.6 0.0 0.00 0.00 0.00 52
20260506201707 31 343 1.6 0.0 0.00 0.00 0.00 53
20260506201159 31 294 3.2 0.0 0.00 0.00 0.00 52
20260506200650 32 337 3.2 0.0 0.00 0.00 0.00 52
20260506200142 32 310 3.2 0.0 0.00 0.00 0.00 52
20260506195633 32 351 1.6 0.0 0.00 0.00 0.00 52
20260506195125 32 343 1.6 0.0 0.00 0.00 0.00 53
20260506194616 32 347 1.6 0.0 0.00 0.00 0.00 52
20260506194108 32 341 1.6 0.0 0.00 0.00 0.00 52
20260506193559 32 316 3.2 0.0 0.00 0.00 0.00 52
20260506193051 32 341 1.6 0.0 0.00 0.00 0.00 51
20260506192542 32 302 3.2 0.0 0.00 0.00 0.00 52